SCP
0 -0 -0 -0 -0 -0 -0 -0 -0 -0 -0 -0 -0 -0 -0 -0 -0 -0 -0 -0 -0 -0 -0 -0 -0 -0 0 0 0 -0 0 -1 -1 -0 -0 -0 -0 -0 0 0 0 0 -0 0 -0 -0 -0
-0 -0 -0 -0 -0 -0 -0 -0 -0 -0 -0 -0 -0 -0 -0 -0 -0 -0 -0 -0 -0 -0 -0 0 0 0 0 0 0 -0 -0 -0 -0 -0 -0 -0 -0 -0 0 0 0 0 0 -0 -0 -0 0
0 -0 -0 -0 -0 -0 -0 -0 -0 -0 -0 -0 -0 -0 -0 -0 -0 -0 -0 -0 -0 -0 -0 0 0 -0 0 -0 0 0 -0 0 -0 -0 -0 0 -0 -0 0 0 -0 -0 -0 -0 0 0 0
0 0 -0 -0 -0 -0 -0 -0 -0 -0 -0 -0 -0 -0 -0 -0 -0 -0 -0 -0 -0 -0 0 0 0 0 0 0 0 0 0 0 0 -0 -0 0 0 0 0 0 -0 0 0 -0 0 0 0
0 0 0 -0 -0 -0 -0 -0 -0 -0 -0 -0 -0 -0 -0 -0 -0 -0 -0 -0 -0 0 0 0 0 0 0 0 -0 0 0 0 0 -0 0 0 0 -0 -0 -0 0 -0 -0 -0 0 -0 0
0 0 0 0 -0 -0 -0 -0 -0 -0 -0 -0 -0 -0 -0 -0 -0 -0 -0 -0 -0 0 0 0 0 0 0 0 0 0 0 0 0 0 0 0 0 0 0 -0 -0 -0 0 0 0 0 -0
0 0 0 0 0 0 -0 -0 -0 -0 -0 -0 -0 -0 -0 -0 -0 -0 0 0 0 0 0 0 0 0 0 0 0 0 0 0 0 0 0 0 0 -0 -0 -0 0 -0 -0 0 -0 0 0
0 -0 -0 0 -0 -0 -0 -0 -0 -0 -0 -0 -0 -0 -0 -0 -0 -0 0 0 0 0 -0 -0 0 -0 0 0 0 0 0 0 0 0 0 0 -0 -0 -0 -0 -0 0 -0 0 0 0 0
-0 -0 0 0 -0 -0 -0 -0 -0 -0 -0 -0 -0 -0 -0 -0 -0 0 0 0 0 0 -0 -0 -0 -0 0 0 0 0 0 0 0 0 0 0 0 -0 -0 -0 -0 -0 -0 0 0 0 0
0 0 0 0 -0 -0 -0 -0 -0 -0 -0 -0 -0 -0 -0 -0 0 -0 -0 -0 -0 0 -0 0 -0 -0 -0 0 0 0 0 0 0 0 0 0 -0 0 0 -0 -0 -0 -0 -0 -0 0 0
-0 0 0 0 -0 -0 -0 -0 -0 -0 -0 -0 -0 -0 -0 -0 0 0 0 -0 -0 -0 0 -0 -0 0 0 -0 0 0 0 0 0 0 0 0 0 0 0 -0 0 -0 -0 -0 0 0 0
0 0 0 0 -0 -0 -0 -0 -0 -0 -0 -0 -0 -0 -0 0 0 0 0 0 0 0 0 0 0 -0 0 0 -0 0 0 0 0 0 0 0 0 0 0 0 0 0 0 0 0 0 -0
-0 -0 -0 -0 -0 -0 -0 -0 -0 -0 -0 -0 -0 -0 0 0 0 0 0 0 0 0 0 0 0 0 -0 0 -0 0 0 0 0 0 0 0 0 0 0 0 0 0 0 0 0 0 0
0 0 0 0 0 0 -0 -0 -0 -0 -0 -0 -0 -0 0 0 0 0 0 0 0 0 0 0 0 -0 -0 -0 -0 -0 0 -0 -0 0 0 0 0 0 0 0 0 0 0 0 0 0 0
0 0 0 0 0 0 0 -0 -0 -0 -0 -0 -0 0 0 0 0 0 0 0 0 0 0 0 0 0 0 0 -0 -0 -0 -0 0 -0 0 0 0 0 0 0 0 0 0 0 0 0 0
0 0 0 0 0 0 0 0 -0 -0 -0 -0 0 0 0 0 -0 0 0 0 0 0 0 0 0 0 0 0 0 0 -0 -0 -0 -0 0 -0 0 0 0 0 0 0 0 0 0 0 0
0 0 0 0 0 0 0 -0 -0 -0 -0 0 0 0 0 -0 0 0 0 0 0 0 0 0 0 0 0 0 0 0 0 0 0 0 0 0 0 0 0 0 0 0 0 0 0 0 0
0 0 0 0 0 0 0 0 -0 -0 -0 0 0 0 0 0 0 0 0 0 0 0 0 0 0 0 0 0 0 0 0 0 0 0 0 0 0 0 0 0 0 0 0 0 0 0 0
0 0 0 0 0 0 0 0 0 -0 0 0 0 0 0 0 0 0 0 0 0 0 0 0 0 0 0 0 0 0 0 0 0 0 0 0 0 -0 0 0 0 0 0 0 0 0 0
0 0 0 0 0 0 0 0 0 -0 0 0 0 0 0 0 0 0 0 0 0 0 0 0 0 0 0 0 0 0 0 0 0 0 0 -0 0 0 0 0 0 0 0 0 0 0 0
0 0 0 0 0 0 0 0 0 -0 0 0 0 0 0 0 0 0 0 0 0 0 0 0 0 0 0 0 0 0 0 0 0 0 0 0 0 0 0 0 0 0 0 0 0 0 0
0 0 0 0 0 0 0 0 0 -0 0 0 0 0 0 0 0 0 0 0 0 0 0 0 0 0 0 0 0 0 0 -0 -0 0 0 0 0 0 0 0 0 0 0 -0 0 0 0
0 0 0 0 0 0 0 0 0 0 0 0 0 0 0 0 0 0 0 0 0 0 0 0 0 0 0 0 0 0 0 0 0 0 0 0 0 0 0 0 0 0 0 0 0 0 0
0 0 0 0 0 0 0 0 0 0 0 -0 0 0 0 0 0 0 0 0 0 0 0 0 0 0 0 0 0 0 0 0 0 0 0 0 0 0 0 0 0 0 0 0 0 0 0
0 0 0 0 0 -0 -0 -0 0 0 0 0 0 0 0 0 0 0 0 0 0 0 0 0 0 0 0 0 -0 0 0 0 0 -0 -0 0 0 0 0 0 0 0 0 0 0 0 0
0 0 0 0 0 -0 -0 0 0 0 0 0 0 0 0 0 0 0 0 0 0 0 0 0 0 0 0 0 -0 -0 -0 -0 0 0 0 0 0 0 0 0 0 0 0 0 0 0 0
0 0 0 0 0 0 0 0 0 0 0 0 0 0 0 0 0 0 0 0 0 0 0 0 0 0 0 0 0 0 -0 0 0 0 0 0 0 0 0 0 0 0 0 0 0 0 0
0 0 0 0 0 -0 -0 0 0 0 0 0 0 0 0 0 0 0 0 0 0 0 0 0 0 0 0 0 0 0 0 0 0 0 0 0 0 0 0 0 0 0 0 1 0 0 0
0 0 0 0 0 -0 0 0 0 0 0 0 0 0 0 0 0 0 0 0 0 0 0 0 0 0 0 0 0 0 0 0 0 0 0 0 0 0 0 0 0 0 0 0 0 0 0
Wind_Speed_500mb
35 37 38 38 40 42 43 43 43 44 43 43 42 42 41 41 40 40 38 32 27 22 21 20 16 15 13 10 23 7 7 33 39 49 44 41 39 27 12 17 10 9 7 20 41 55 48
34 37 38 40 42 44 46 45 46 46 45 45 45 44 43 43 43 41 40 34 25 23 20 17 16 14 12 7 14 25 14 31 40 50 51 44 29 28 23 9 1 19 28 33 43 40 37
35 37 40 43 45 47 49 47 47 47 46 46 47 46 45 45 45 44 40 32 24 20 19 16 16 16 19 31 14 19 21 26 30 33 35 32 24 13 14 9 9 24 9 6 4 29 12
36 39 42 46 48 50 51 50 49 48 47 47 48 47 46 45 46 45 41 28 20 18 14 15 15 15 17 8 27 26 24 24 24 25 27 24 12 19 6 5 13 9 10 7 12 14 10
38 41 45 49 50 53 52 51 50 49 48 49 49 47 45 44 45 45 29 22 12 9 9 13 12 10 17 21 34 34 30 25 17 16 15 9 12 5 3 8 8 8 10 5 4 17 6
41 44 48 49 50 53 53 52 51 50 49 50 50 46 44 41 41 35 26 11 10 2 7 9 14 9 23 2 17 37 36 27 21 14 16 12 9 5 7 6 11 8 9 5 7 4 6
43 45 47 49 52 54 55 54 52 52 51 51 50 47 42 37 35 20 20 4 9 3 13 18 10 16 19 8 8 20 43 40 30 11 8 2 8 10 18 14 7 11 8 9 5 8 7
45 47 47 50 52 55 56 56 54 54 52 51 50 47 41 31 28 8 16 12 18 17 25 32 40 49 54 47 17 13 32 32 16 15 8 6 12 21 10 8 7 10 12 4 6 7 5
46 48 49 50 52 54 56 56 55 54 53 50 49 45 42 29 16 1 6 9 10 20 8 20 26 37 43 20 26 20 22 36 10 11 11 15 10 14 9 9 10 11 16 10 9 4 5
44 46 48 49 52 54 56 56 56 55 53 50 48 45 41 28 7 12 9 5 13 16 9 13 8 9 22 20 7 29 31 35 3 20 16 13 12 14 6 13 11 9 19 22 20 9 5
43 46 47 49 51 53 56 57 58 57 53 50 47 44 38 33 23 10 9 15 18 4 6 2 4 2 26 26 7 18 30 27 16 14 14 18 10 9 11 17 11 15 24 26 19 8 5
43 47 50 50 51 55 56 58 59 58 53 51 45 42 41 31 19 8 5 3 7 11 7 9 7 3 11 7 6 8 20 20 12 11 6 14 7 11 15 8 17 14 15 15 11 8 10
43 47 49 49 50 53 56 58 59 59 55 53 44 36 34 23 6 10 4 4 10 7 9 15 8 11 5 9 5 10 10 10 12 8 9 12 10 7 8 5 2 14 15 7 6 3 13
41 48 49 47 48 52 56 58 60 58 56 53 41 29 21 8 14 12 8 9 5 3 6 7 10 7 10 6 5 3 10 10 9 10 7 14 15 18 9 18 21 18 20 13 15 10 9
41 48 47 46 48 51 55 59 60 57 56 50 30 13 17 17 9 11 5 7 12 10 7 13 17 10 12 7 8 7 14 12 16 21 21 12 19 4 10 11 19 10 7 9 15 7 8
41 43 44 44 47 50 55 57 60 57 54 48 14 28 20 16 15 7 10 6 5 8 7 5 4 5 7 10 8 4 9 7 12 25 10 15 7 11 12 10 8 17 15 5 3 10 8
39 41 42 44 48 51 53 55 59 59 53 39 9 9 20 4 4 8 7 9 10 19 8 5 6 7 11 5 4 5 6 8 13 14 10 11 10 9 9 12 19 4 6 12 12 10 13
38 40 41 45 49 52 54 53 56 63 57 43 9 7 20 8 8 5 2 2 12 13 29 6 7 13 11 7 7 3 4 10 43 9 5 17 10 11 23 7 4 9 13 13 11 12 3
38 39 41 44 48 52 54 52 51 56 55 51 15 9 26 16 6 7 14 11 8 16 13 14 9 12 5 4 4 10 8 12 33 15 9 4 4 14 23 11 8 5 6 8 11 8 16
36 37 40 43 47 51 53 52 47 48 43 40 13 8 15 23 14 6 10 9 13 23 5 16 7 14 12 11 13 5 11 5 20 12 25 5 2 14 23 23 10 9 12 10 12 8 10
32 36 40 43 45 49 52 53 51 43 36 25 17 5 8 7 8 7 4 9 9 16 14 31 12 16 7 12 12 8 8 10 12 10 17 8 3 5 22 15 13 13 11 17 12 15 15
30 34 39 45 48 47 48 50 52 49 33 17 11 11 13 7 14 7 11 8 9 10 6 10 8 19 10 7 4 11 7 5 10 12 10 9 5 12 9 6 14 10 12 19 15 5 17
28 34 41 47 49 47 45 46 48 48 40 18 14 9 8 6 8 5 4 9 10 14 13 10 13 6 8 13 37 45 46 37 23 5 6 3 5 10 11 11 12 4 11 9 8 11 13
27 33 39 46 49 48 43 39 39 40 37 27 23 13 9 7 5 5 8 13 12 12 8 27 14 8 12 52 43 26 27 34 24 22 26 8 6 4 9 12 8 14 5 6 9 14 16
28 33 37 42 47 48 42 36 32 30 28 21 15 11 8 6 3 7 18 6 19 24 9 11 14 36 46 27 5 9 10 12 8 2 10 10 7 4 3 4 13 4 3 7 3 17 9
29 33 35 39 45 47 40 33 31 28 23 17 11 10 4 5 4 9 8 12 6 8 11 12 45 34 23 3 4 9 8 7 9 11 4 14 15 4 6 3 7 12 1 1 10 11 7
29 32 36 38 42 47 41 27 28 26 22 17 3 11 4 7 12 3 5 9 12 6 6 14 33 20 29 8 5 8 9 8 8 7 5 6 8 1 4 8 15 12 21 15 7 14 15
29 31 33 35 36 42 35 24 25 24 24 18 11 9 10 9 35 33 13 17 7 9 3 25 21 8 12 11 6 5 2 5 6 4 2 8 7 6 2 4 10 41 17 7 18 40 6
27 30 33 35 34 38 33 26 23 22 23 23 19 17 21 24 29 34 35 40 58 56 36 9 6 12 8 5 6 5 5 6 2 5 8 3 2 6 14 9 9 38 18 26 41 35 40
Wind_Direction_500mb
23 19 16 11 7 2 358 354 352 350 349 346 345 344 342 340 338 334 328 317 300 287 283 287 291 291 292 261 239 142 125 172 182 178 185 184 194 203 234 204 190 173 201 116 140 157 173
17 12 8 4 -0 356 351 349 347 346 344 341 340 339 338 336 335 333 328 317 299 283 274 273 278 278 272 254 236 230 254 191 194 188 192 193 209 216 281 275 190 157 164 143 154 171 172
9 5 0 356 352 349 347 343 342 341 340 337 335 335 335 334 333 331 329 314 296 277 268 263 264 272 267 248 219 189 197 210 210 213 217 228 236 241 314 278 220 144 81 61 149 174 183
1 358 354 351 348 345 343 340 339 338 338 335 332 332 332 332 332 331 331 313 299 273 257 254 253 268 257 239 219 197 196 202 219 226 238 252 257 282 229 296 56 81 54 106 351 30 352
352 350 348 347 345 344 341 337 337 337 337 335 331 330 331 332 332 335 340 326 305 270 243 241 251 240 258 224 212 194 201 201 210 226 236 244 291 217 71 98 60 14 168 146 124 6 179
344 344 344 344 342 343 344 339 337 335 336 335 331 329 330 332 333 345 358 13 35 197 208 234 232 277 243 143 226 210 208 215 222 249 252 204 174 52 52 92 197 154 118 77 180 285 20
336 338 340 340 338 339 341 338 335 333 334 334 330 329 329 332 334 357 19 41 4 11 290 243 247 249 269 269 308 217 215 221 231 217 160 24 88 209 216 214 134 153 111 105 34 298 289
331 333 335 336 334 337 338 338 335 333 333 333 329 328 327 333 329 353 38 84 37 308 294 273 251 251 254 263 295 256 206 188 181 213 104 27 210 233 232 203 153 163 128 119 194 226 202
327 330 332 333 333 334 335 336 335 333 333 332 329 327 325 334 322 173 102 42 356 341 284 294 241 242 235 222 221 248 199 198 156 145 164 202 214 183 191 251 211 194 149 204 200 158 308
326 328 331 333 333 333 334 334 333 332 332 331 328 327 323 333 293 304 197 270 317 316 44 278 252 263 187 191 252 223 214 190 127 180 163 233 217 224 155 244 158 240 177 163 146 169 193
331 331 334 334 334 334 334 333 332 331 332 329 325 324 318 316 300 295 228 271 286 292 8 319 211 122 157 168 159 202 203 191 168 179 122 231 161 153 187 221 162 235 153 169 103 118 334
333 331 333 335 337 337 336 333 331 333 333 327 322 322 311 309 301 231 211 285 158 46 260 339 99 295 130 198 235 108 162 184 213 131 6 233 200 145 216 174 202 101 70 49 58 54 340
332 334 335 337 340 339 338 334 333 335 335 325 325 316 302 298 257 200 253 141 47 133 315 344 332 346 222 187 222 153 161 143 166 119 244 290 252 228 199 166 77 100 86 29 14 7 230
336 334 340 344 345 345 344 339 337 340 341 331 331 317 311 266 214 209 192 60 146 259 321 322 287 280 159 134 236 287 119 206 241 125 127 208 300 176 183 181 187 172 156 156 180 192 235
338 344 352 355 352 349 347 344 342 346 348 338 347 4 98 88 158 162 166 82 203 201 280 316 328 37 14 347 177 158 191 224 214 174 178 163 260 214 168 177 136 215 204 181 95 346 105
345 354 359 357 353 352 349 349 347 351 353 344 27 87 105 85 101 94 76 232 258 227 341 312 320 44 1 302 23 149 196 219 237 189 171 217 283 216 230 148 210 155 169 77 319 135 208
358 359 360 358 355 354 355 355 352 351 358 352 50 84 44 105 89 23 115 233 280 306 331 274 250 254 224 240 220 266 225 3 6 330 146 140 134 272 106 179 214 135 186 54 115 132 165
358 358 359 358 359 359 359 359 357 352 359 9 37 66 11 203 43 23 61 305 306 327 352 319 235 211 210 213 239 253 338 356 357 287 198 204 156 228 215 263 204 165 224 166 175 231 225
357 358 358 359 360 0 1 1 -0 357 1 2 7 351 27 153 76 350 320 317 334 348 329 355 314 14 327 277 238 74 341 301 5 34 357 278 241 251 297 345 1 184 205 143 112 81 190
358 360 359 1 0 0 0 1 359 359 0 2 8 13 18 60 64 83 4 327 340 342 350 359 0 14 0 17 4 51 355 332 339 357 347 198 104 186 222 225 175 172 183 155 120 112 168
1 3 4 2 2 1 1 2 2 2 1 5 23 47 22 335 6 357 321 359 354 354 352 14 11 357 329 24 2 22 335 311 298 19 15 82 88 301 290 253 184 211 183 163 161 205 163
8 9 8 4 2 1 -0 2 4 4 13 25 31 18 360 328 322 352 359 9 6 342 299 349 22 318 357 96 35 301 357 285 253 330 4 350 315 2 298 186 243 207 186 171 206 165 251
10 7 7 6 5 3 360 0 5 9 14 47 38 25 338 356 354 49 40 334 336 353 285 5 328 339 313 315 311 281 272 257 247 272 315 346 38 18 288 350 283 300 210 198 222 183 165
4 3 4 5 5 3 360 358 3 13 21 27 28 15 14 295 33 39 322 322 330 338 266 306 338 350 301 316 307 285 257 256 255 250 209 195 94 124 266 350 207 234 253 213 241 264 227
357 357 357 359 1 1 358 355 356 7 19 18 19 32 11 306 282 304 345 331 330 342 311 278 322 309 318 307 328 1 335 1 297 224 242 164 130 176 205 236 281 256 80 77 31 288 246
344 346 348 351 355 355 352 349 350 353 13 23 17 27 353 329 252 356 326 354 343 322 332 302 331 335 337 282 109 186 214 223 310 345 72 94 105 152 136 180 268 242 202 37 127 276 278
333 338 345 346 348 350 348 341 346 350 4 15 2 318 335 292 296 256 0 304 293 345 279 304 336 324 359 356 168 177 224 213 203 207 349 17 43 325 259 224 282 294 312 326 125 245 302
330 334 337 339 343 349 352 345 344 345 344 358 9 348 321 275 284 287 272 203 234 303 249 311 331 351 345 35 17 314 298 287 341 263 213 164 138 172 333 228 244 8 343 35 312 314 311
325 332 336 338 338 342 338 333 335 335 334 336 341 324 302 278 266 272 265 263 276 284 266 247 254 323 276 26 358 324 324 343 261 211 333 116 146 206 174 237 322 339 288 343 351 343 343
Wind_Speed_850mb
35 37 38 38 40 42 43 43 43 44 43 43 42 42 41 41 40 40 38 32 27 22 21 20 16 15 13 10 23 7 7 33 39 49 44 41 39 27 12 17 10 9 7 20 41 55 48
34 37 38 40 42 44 46 45 46 46 45 45 45 44 43 43 43 41 40 34 25 23 20 17 16 14 12 7 14 25 14 31 40 50 51 44 29 28 23 9 1 19 28 33 43 40 37
35 37 40 43 45 47 49 47 47 47 46 46 47 46 45 45 45 44 40 32 24 20 19 16 16 16 19 31 14 19 21 26 30 33 35 32 24 13 14 9 9 24 9 6 4 29 12
36 39 42 46 48 50 51 50 49 48 47 47 48 47 46 45 46 45 41 28 20 18 14 15 15 15 17 8 27 26 24 24 24 25 27 24 12 19 6 5 13 9 10 7 12 14 10
38 41 45 49 50 53 52 51 50 49 48 49 49 47 45 44 45 45 29 22 12 9 9 13 12 10 17 21 34 34 30 25 17 16 15 9 12 5 3 8 8 8 10 5 4 17 6
41 44 48 49 50 53 53 52 51 50 49 50 50 46 44 41 41 35 26 11 10 2 7 9 14 9 23 2 17 37 36 27 21 14 16 12 9 5 7 6 11 8 9 5 7 4 6
43 45 47 49 52 54 55 54 52 52 51 51 50 47 42 37 35 20 20 4 9 3 13 18 10 16 19 8 8 20 43 40 30 11 8 2 8 10 18 14 7 11 8 9 5 8 7
45 47 47 50 52 55 56 56 54 54 52 51 50 47 41 31 28 8 16 12 18 17 25 32 40 49 54 47 17 13 32 32 16 15 8 6 12 21 10 8 7 10 12 4 6 7 5
46 48 49 50 52 54 56 56 55 54 53 50 49 45 42 29 16 1 6 9 10 20 8 20 26 37 43 20 26 20 22 36 10 11 11 15 10 14 9 9 10 11 16 10 9 4 5
44 46 48 49 52 54 56 56 56 55 53 50 48 45 41 28 7 12 9 5 13 16 9 13 8 9 22 20 7 29 31 35 3 20 16 13 12 14 6 13 11 9 19 22 20 9 5
43 46 47 49 51 53 56 57 58 57 53 50 47 44 38 33 23 10 9 15 18 4 6 2 4 2 26 26 7 18 30 27 16 14 14 18 10 9 11 17 11 15 24 26 19 8 5
43 47 50 50 51 55 56 58 59 58 53 51 45 42 41 31 19 8 5 3 7 11 7 9 7 3 11 7 6 8 20 20 12 11 6 14 7 11 15 8 17 14 15 15 11 8 10
43 47 49 49 50 53 56 58 59 59 55 53 44 36 34 23 6 10 4 4 10 7 9 15 8 11 5 9 5 10 10 10 12 8 9 12 10 7 8 5 2 14 15 7 6 3 13
41 48 49 47 48 52 56 58 60 58 56 53 41 29 21 8 14 12 8 9 5 3 6 7 10 7 10 6 5 3 10 10 9 10 7 14 15 18 9 18 21 18 20 13 15 10 9
41 48 47 46 48 51 55 59 60 57 56 50 30 13 17 17 9 11 5 7 12 10 7 13 17 10 12 7 8 7 14 12 16 21 21 12 19 4 10 11 19 10 7 9 15 7 8
41 43 44 44 47 50 55 57 60 57 54 48 14 28 20 16 15 7 10 6 5 8 7 5 4 5 7 10 8 4 9 7 12 25 10 15 7 11 12 10 8 17 15 5 3 10 8
39 41 42 44 48 51 53 55 59 59 53 39 9 9 20 4 4 8 7 9 10 19 8 5 6 7 11 5 4 5 6 8 13 14 10 11 10 9 9 12 19 4 6 12 12 10 13
38 40 41 45 49 52 54 53 56 63 57 43 9 7 20 8 8 5 2 2 12 13 29 6 7 13 11 7 7 3 4 10 43 9 5 17 10 11 23 7 4 9 13 13 11 12 3
38 39 41 44 48 52 54 52 51 56 55 51 15 9 26 16 6 7 14 11 8 16 13 14 9 12 5 4 4 10 8 12 33 15 9 4 4 14 23 11 8 5 6 8 11 8 16
36 37 40 43 47 51 53 52 47 48 43 40 13 8 15 23 14 6 10 9 13 23 5 16 7 14 12 11 13 5 11 5 20 12 25 5 2 14 23 23 10 9 12 10 12 8 10
32 36 40 43 45 49 52 53 51 43 36 25 17 5 8 7 8 7 4 9 9 16 14 31 12 16 7 12 12 8 8 10 12 10 17 8 3 5 22 15 13 13 11 17 12 15 15
30 34 39 45 48 47 48 50 52 49 33 17 11 11 13 7 14 7 11 8 9 10 6 10 8 19 10 7 4 11 7 5 10 12 10 9 5 12 9 6 14 10 12 19 15 5 17
28 34 41 47 49 47 45 46 48 48 40 18 14 9 8 6 8 5 4 9 10 14 13 10 13 6 8 13 37 45 46 37 23 5 6 3 5 10 11 11 12 4 11 9 8 11 13
27 33 39 46 49 48 43 39 39 40 37 27 23 13 9 7 5 5 8 13 12 12 8 27 14 8 12 52 43 26 27 34 24 22 26 8 6 4 9 12 8 14 5 6 9 14 16
28 33 37 42 47 48 42 36 32 30 28 21 15 11 8 6 3 7 18 6 19 24 9 11 14 36 46 27 5 9 10 12 8 2 10 10 7 4 3 4 13 4 3 7 3 17 9
29 33 35 39 45 47 40 33 31 28 23 17 11 10 4 5 4 9 8 12 6 8 11 12 45 34 23 3 4 9 8 7 9 11 4 14 15 4 6 3 7 12 1 1 10 11 7
29 32 36 38 42 47 41 27 28 26 22 17 3 11 4 7 12 3 5 9 12 6 6 14 33 20 29 8 5 8 9 8 8 7 5 6 8 1 4 8 15 12 21 15 7 14 15
29 31 33 35 36 42 35 24 25 24 24 18 11 9 10 9 35 33 13 17 7 9 3 25 21 8 12 11 6 5 2 5 6 4 2 8 7 6 2 4 10 41 17 7 18 40 6
27 30 33 35 34 38 33 26 23 22 23 23 19 17 21 24 29 34 35 40 58 56 36 9 6 12 8 5 6 5 5 6 2 5 8 3 2 6 14 9 9 38 18 26 41 35 40
Wind_Direction_850mb
23 19 16 11 7 2 358 354 352 350 349 346 345 344 342 340 338 334 328 317 300 287 283 287 291 291 292 261 239 142 125 172 182 178 185 184 194 203 234 204 190 173 201 116 140 157 173
17 12 8 4 -0 356 351 349 347 346 344 341 340 339 338 336 335 333 328 317 299 283 274 273 278 278 272 254 236 230 254 191 194 188 192 193 209 216 281 275 190 157 164 143 154 171 172
9 5 0 356 352 349 347 343 342 341 340 337 335 335 335 334 333 331 329 314 296 277 268 263 264 272 267 248 219 189 197 210 210 213 217 228 236 241 314 278 220 144 81 61 149 174 183
1 358 354 351 348 345 343 340 339 338 338 335 332 332 332 332 332 331 331 313 299 273 257 254 253 268 257 239 219 197 196 202 219 226 238 252 257 282 229 296 56 81 54 106 351 30 352
352 350 348 347 345 344 341 337 337 337 337 335 331 330 331 332 332 335 340 326 305 270 243 241 251 240 258 224 212 194 201 201 210 226 236 244 291 217 71 98 60 14 168 146 124 6 179
344 344 344 344 342 343 344 339 337 335 336 335 331 329 330 332 333 345 358 13 35 197 208 234 232 277 243 143 226 210 208 215 222 249 252 204 174 52 52 92 197 154 118 77 180 285 20
336 338 340 340 338 339 341 338 335 333 334 334 330 329 329 332 334 357 19 41 4 11 290 243 247 249 269 269 308 217 215 221 231 217 160 24 88 209 216 214 134 153 111 105 34 298 289
331 333 335 336 334 337 338 338 335 333 333 333 329 328 327 333 329 353 38 84 37 308 294 273 251 251 254 263 295 256 206 188 181 213 104 27 210 233 232 203 153 163 128 119 194 226 202
327 330 332 333 333 334 335 336 335 333 333 332 329 327 325 334 322 173 102 42 356 341 284 294 241 242 235 222 221 248 199 198 156 145 164 202 214 183 191 251 211 194 149 204 200 158 308
326 328 331 333 333 333 334 334 333 332 332 331 328 327 323 333 293 304 197 270 317 316 44 278 252 263 187 191 252 223 214 190 127 180 163 233 217 224 155 244 158 240 177 163 146 169 193
331 331 334 334 334 334 334 333 332 331 332 329 325 324 318 316 300 295 228 271 286 292 8 319 211 122 157 168 159 202 203 191 168 179 122 231 161 153 187 221 162 235 153 169 103 118 334
333 331 333 335 337 337 336 333 331 333 333 327 322 322 311 309 301 231 211 285 158 46 260 339 99 295 130 198 235 108 162 184 213 131 6 233 200 145 216 174 202 101 70 49 58 54 340
332 334 335 337 340 339 338 334 333 335 335 325 325 316 302 298 257 200 253 141 47 133 315 344 332 346 222 187 222 153 161 143 166 119 244 290 252 228 199 166 77 100 86 29 14 7 230
336 334 340 344 345 345 344 339 337 340 341 331 331 317 311 266 214 209 192 60 146 259 321 322 287 280 159 134 236 287 119 206 241 125 127 208 300 176 183 181 187 172 156 156 180 192 235
338 344 352 355 352 349 347 344 342 346 348 338 347 4 98 88 158 162 166 82 203 201 280 316 328 37 14 347 177 158 191 224 214 174 178 163 260 214 168 177 136 215 204 181 95 346 105
345 354 359 357 353 352 349 349 347 351 353 344 27 87 105 85 101 94 76 232 258 227 341 312 320 44 1 302 23 149 196 219 237 189 171 217 283 216 230 148 210 155 169 77 319 135 208
358 359 360 358 355 354 355 355 352 351 358 352 50 84 44 105 89 23 115 233 280 306 331 274 250 254 224 240 220 266 225 3 6 330 146 140 134 272 106 179 214 135 186 54 115 132 165
358 358 359 358 359 359 359 359 357 352 359 9 37 66 11 203 43 23 61 305 306 327 352 319 235 211 210 213 239 253 338 356 357 287 198 204 156 228 215 263 204 165 224 166 175 231 225
357 358 358 359 360 0 1 1 -0 357 1 2 7 351 27 153 76 350 320 317 334 348 329 355 314 14 327 277 238 74 341 301 5 34 357 278 241 251 297 345 1 184 205 143 112 81 190
358 360 359 1 0 0 0 1 359 359 0 2 8 13 18 60 64 83 4 327 340 342 350 359 0 14 0 17 4 51 355 332 339 357 347 198 104 186 222 225 175 172 183 155 120 112 168
1 3 4 2 2 1 1 2 2 2 1 5 23 47 22 335 6 357 321 359 354 354 352 14 11 357 329 24 2 22 335 311 298 19 15 82 88 301 290 253 184 211 183 163 161 205 163
8 9 8 4 2 1 -0 2 4 4 13 25 31 18 360 328 322 352 359 9 6 342 299 349 22 318 357 96 35 301 357 285 253 330 4 350 315 2 298 186 243 207 186 171 206 165 251
10 7 7 6 5 3 360 0 5 9 14 47 38 25 338 356 354 49 40 334 336 353 285 5 328 339 313 315 311 281 272 257 247 272 315 346 38 18 288 350 283 300 210 198 222 183 165
4 3 4 5 5 3 360 358 3 13 21 27 28 15 14 295 33 39 322 322 330 338 266 306 338 350 301 316 307 285 257 256 255 250 209 195 94 124 266 350 207 234 253 213 241 264 227
357 357 357 359 1 1 358 355 356 7 19 18 19 32 11 306 282 304 345 331 330 342 311 278 322 309 318 307 328 1 335 1 297 224 242 164 130 176 205 236 281 256 80 77 31 288 246
344 346 348 351 355 355 352 349 350 353 13 23 17 27 353 329 252 356 326 354 343 322 332 302 331 335 337 282 109 186 214 223 310 345 72 94 105 152 136 180 268 242 202 37 127 276 278
333 338 345 346 348 350 348 341 346 350 4 15 2 318 335 292 296 256 0 304 293 345 279 304 336 324 359 356 168 177 224 213 203 207 349 17 43 325 259 224 282 294 312 326 125 245 302
330 334 337 339 343 349 352 345 344 345 344 358 9 348 321 275 284 287 272 203 234 303 249 311 331 351 345 35 17 314 298 287 341 263 213 164 138 172 333 228 244 8 343 35 312 314 311
325 332 336 338 338 342 338 333 335 335 334 336 341 324 302 278 266 272 265 263 276 284 266 247 254 323 276 26 358 324 324 343 261 211 333 116 146 206 174 237 322 339 288 343 351 343 343